Regional Weather Roundup
Issued by NWS

Home | Current Version | Previous Version | Text Only | Print | Product List | Glossary On
Versions: 1 2 3 4 5 6 7 8 9 10 11 12 13 14 15 16 17 18 19 20 21 22 23 24 25 26 27 28 29 30 31 32 33 34 35 36 37 38 39 40 41 42 43 44 45 46 47 48 49 50
146
ASUS45 KBOU 232207
RWRCO

WEATHER ROUNDUP FOR COLORADO
NATIONAL WEATHER SERVICE DENVER/BOULDER CO
400 PM MDT SAT SEP 23 2017

NOTE: "FAIR" INDICATES FEW OR NO CLOUDS BELOW 12000 FEET WITH NO
SIGNIFICANT WEATHER AND/OR OBSTRUCTIONS TO VISIBILITY.

COZ001>005-013-030-031-232300-
...NORTHWEST COLORADO...

CITY           SKY/WX    TMP DP  RH WIND       PRES   REMARKS
CRAIG          CLOUDY    56  39  53 N6        29.89F
HAYDEN         PTSUNNY   50  41  71 E18       29.92F
MEEKER         PTSUNNY   57  39  51 SW13      29.86F
RABBIT EARS PA SNOW      32  32 100 S7        30.08S VSB 1/4 WCI  26
STEAMBOAT SPGS CLOUDY    46  41  84 CALM      29.94F
WALDEN         CLOUDY    41  36  81 SE8       30.05S
$$

COZ006>008-011-232300-
...WEST CENTRAL VALLEYS...

CITY           SKY/WX    TMP DP  RH WIND       PRES   REMARKS
GRAND JUNCTION LGT RAIN  54  44  69 W12       29.82R
MONTROSE       FAIR      56  42  59 S20G38    29.87F
EAGLE          CLOUDY    48  43  82 E13       29.97F
RIFLE          PTSUNNY   58  45  62 NE9       29.86F
DELTA          NOT AVBL
NUCLA          FAIR      63  37  39 SW9       29.88S
$$

COZ017>023-064>068-232300-
...SOUTHWEST COLORADO...

CITY           SKY/WX    TMP DP  RH WIND       PRES   REMARKS
DURANGO        CLOUDY    52  46  80 NE13      29.91F
CORTEZ         FAIR      63  40  42 S10       29.84F
PAGOSA SPRINGS CLOUDY    47  46  95 NE6       29.99F
TELLURIDE      PTSUNNY   46  35  65 SE17G28   30.00F
WOLF CREEK PAS SNOW      30  30 100 SW13G32   30.16R VSB<1/4 WCI  20
$$

COZ009-010-012-014-032>034-037-058>063-232300-
...CENTRAL COLORADO...

CITY           SKY/WX    TMP DP  RH WIND       PRES   REMARKS
ASPEN          LGT RAIN  43  39  86 S8        29.99F
BUENA VISTA    RAIN      52  46  80 S7        29.92F
COPPER MTN     CLOUDY    34  30  86 W17       30.12F VSB 1/4 WCI  23
BERTHOUD PASS  TSTM      27  18  69 NE7       30.16R VSB<1/4 WCI  19
COTTONWOOD PAS   N/A     50  46  87 CALM      30.02S
GUNNISON       CLOUDY    50  38  63 N8        29.96R
KREMMLING      LGT RAIN  50  39  66 W8        30.01F
LEADVILLE      LGT RAIN  36  34  92 N12G21    30.03R FOG
MONARCH PASS   LGT RAIN  36  34  93 SW25G38   30.21F VSB<1/4
SALIDA         CLOUDY    55  50  82 SE7       29.98F
SUNLIGHT       CLOUDY    34  32  93 S14G29    30.05F WCI  24
WILKERSON PASS TSTM      41  37  87 SW7G18    30.14S
$$

COZ069>075-232300-
...SAN LUIS VALLEY/SANGRE DE CRISTO MOUNTAINS...

CITY           SKY/WX    TMP DP  RH WIND       PRES   REMARKS
ALAMOSA        LGT RAIN  57  46  66 W13       29.90R
DEL NORTE      CLOUDY    52  40  64 W22G32    29.96R
LA VETA PASS   FAIR      61  32  33 S20       30.14F
SAGUACHE       LGT RAIN  55  43  62 W9        29.93R
$$

COZ035-036-038>040-232300-
...NORTHERN COLORADO FRONT RANGE...

CITY           SKY/WX    TMP DP  RH WIND       PRES   REMARKS
DENVER INTL AP CLOUDY    52  42  69 N13       29.93S
DMNS CITY PARK   N/A     50  44  80 NE8G17    29.92F
AURORA         CLOUDY    51  43  75 N13       29.93R
FRONT RANGE AP CLOUDY    54  45  71 N10       29.95R
ERIE MUNI ARPT LGT RAIN  51  44  77 NE8       29.99R
BOULDER MUN AP LGT RAIN  48  46  93 N6        29.96R
CENTENNIAL     CLOUDY    51  44  77 N12       29.92S
BROOMFIELD     NOT AVBL
FORT COLLINS   LGT RAIN  49  45  86 N9        29.96R
LONGMONT       LGT RAIN  51  46  85 NE8       29.98R
$$

COZ041-046-047-076>085-087-088-232300-
...PIKES PEAK/PALMER DIVIDE AND SOUTHERN FOOTHILLS...

CITY           SKY/WX    TMP DP  RH WIND       PRES   REMARKS
COLO. SPRINGS  HVY RAIN  56  54  93 SE9       29.90F FOG
A. F. ACADEMY  LGT RAIN  55  54  94 SE7       29.92F
SCHRIEVER AFB  LGT RAIN  55  54  94 SE18G30   29.90F FOG
CHEYENNE MTN   LGT RAIN  53  52  97 SE7       29.86F VSB 1/8
ELLICOTT       LGT RAIN N/A N/A N/A S20G33    29.90F
FALCON         LGT RAIN  54  54  99 SE18G26   29.94F
FORT CARSON    LGT RAIN  55  55 100 E5        29.86F
LIMON            N/A    N/A N/A N/A MISG      29.90F
MONUMENT HILL  RAIN      52  50  93 S8        29.96F
CANON CITY     CLOUDY    59  55  88 E12       29.83F FOG
WALSENBURG     FAIR      68  54  60 SE21G32   29.81F
TRINIDAD       LGT RAIN  62  54  74 S18       29.89F
$$

COZ042>045-048>051-090-091-232300-
...NORTHEAST COLORADO...

CITY           SKY/WX    TMP DP  RH WIND       PRES   REMARKS
GREELEY ARPT   CLOUDY    51  44  77 N9        29.96R
AKRON          CLOUDY    52  50  93 NE3       29.92F
BURLINGTON     CLOUDY    63  52  67 N7        29.90F
WRAY           PTSUNNY   59  52  77 E9        29.90R
YUMA           LGT RAIN  52  50  93 E6        29.90R
STERLING       CLOUDY    50  48  93 N7        29.91R
HOLYOKE        PTSUNNY   59  54  82 NE9       29.90F
FORT MORGAN    CLOUDY    50  43  77 N7        29.95R
$$

COZ086-089-092>099-232300-
...SOUTHEAST COLORADO...

CITY           SKY/WX    TMP DP  RH WIND       PRES   REMARKS
PUEBLO         CLOUDY    62  59  90 E13       29.80F
LA JUNTA       HVY RAIN  60  59  96 E12       29.86F FOG
LAMAR          LGT RAIN  62  60  93 NW3       29.87S FOG
SPRINGFIELD      N/A     60  60 100 SW9       29.92R
$$




USA.gov is the U.S. government's official web portal to all federal, state and local government web resources and services.